• In Belgium
  • List of Countries
  • For 7 days
  • Water Temperature
  • Satellite Maps
  • Weather Map
  • Weather Widgets
  • user-avatar
    Login

    Hourly Weather Oran

    Today, 23 July, Monday

    Time Temperature Precipitation Wind Pressure Humidity
    00:00 +28°C° 0 mm 2 mps 751 mmHg 55%
    01:00 +28°C° 0 mm 2 mps 751 mmHg 58%
    02:00 +27°C° 0 mm 2 mps 751 mmHg 61%
    03:00 +27°C° 0 mm 2 mps 751 mmHg 64%
    04:00 +27°C° 0 mm 2 mps 751 mmHg 65%
    05:00 +26°C° 0 mm 2 mps 751 mmHg 67%
    06:00 +26°C° 0 mm 2 mps 751 mmHg 69%
    07:00 +28°C° 0 mm 2 mps 751 mmHg 61%
    08:00 +29°C° 0 mm 2 mps 751 mmHg 53%
    09:00 +31°C° 0 mm 2 mps 751 mmHg 45%
    10:00 +33°C° 0 mm 3 mps 751 mmHg 40%
    11:00 +35°C° 0 mm 3 mps 751 mmHg 35%
    12:00 +36°C° 0 mm 4 mps 751 mmHg 30%
    13:00 +37°C° 0 mm 4 mps 751 mmHg 31%
    14:00 +37°C° 0 mm 4 mps 750 mmHg 31%
    15:00 +37°C° 0 mm 4 mps 750 mmHg 31%
    16:00 +37°C° 0 mm 4 mps 750 mmHg 33%
    17:00 +36°C° 0 mm 3 mps 750 mmHg 34%
    18:00 +35°C° 0 mm 3 mps 750 mmHg 36%
    19:00 +34°C° 0 mm 2 mps 750 mmHg 39%
    20:00 +32°C° 0 mm 2 mps 751 mmHg 42%
    21:00 +31°C° 0 mm 1 mps 751 mmHg 45%
    22:00 +31°C° 0 mm 1 mps 751 mmHg 47%
    23:00 +30°C° 0 mm 2 mps 751 mmHg 50%

    Tomorrow, 24 July, Tuesday

    Time Temperature Precipitation Wind Pressure Humidity
    00:00 +29°C° 0 mm 2 mps 751 mmHg 53%
    01:00 +29°C° 0 mm 2 mps 750 mmHg 55%
    02:00 +28°C° 0 mm 2 mps 750 mmHg 58%
    03:00 +27°C° 0 mm 2 mps 750 mmHg 61%
    04:00 +27°C° 0 mm 2 mps 750 mmHg 62%
    05:00 +27°C° 0 mm 2 mps 750 mmHg 62%
    06:00 +27°C° 0 mm 2 mps 750 mmHg 63%
    07:00 +28°C° 0 mm 2 mps 750 mmHg 57%
    08:00 +30°C° 0 mm 2 mps 751 mmHg 51%
    09:00 +31°C° 0 mm 2 mps 751 mmHg 45%
    10:00 +33°C° 0 mm 3 mps 750 mmHg 41%
    11:00 +34°C° 0 mm 3 mps 750 mmHg 37%
    12:00 +36°C° 0 mm 4 mps 750 mmHg 33%
    13:00 +36°C° 0 mm 4 mps 750 mmHg 32%
    14:00 +36°C° 0 mm 4 mps 749 mmHg 32%
    15:00 +36°C° 0 mm 4 mps 749 mmHg 31%
    16:00 +36°C° 0 mm 3 mps 749 mmHg 31%
    17:00 +35°C° 0 mm 3 mps 749 mmHg 32%
    18:00 +35°C° 0 mm 3 mps 749 mmHg 32%
    19:00 +34°C° 0 mm 2 mps 749 mmHg 34%
    20:00 +32°C° 0 mm 2 mps 749 mmHg 35%
    21:00 +32°C° 0 mm 2 mps 750 mmHg 37%
    22:00 +31°C° 0 mm 2 mps 750 mmHg 37%
    23:00 +31°C° 0 mm 2 mps 749 mmHg 38%

    Day after tomorrow, 25 July, Wednesday

    Time Temperature Precipitation Wind Pressure Humidity
    00:00 +31°C° 0 mm 2 mps 749 mmHg 38%
    01:00 +30°C° 0 mm 2 mps 749 mmHg 39%
    02:00 +30°C° 0 mm 2 mps 749 mmHg 39%
    03:00 +30°C° 0 mm 3 mps 749 mmHg 40%
    04:00 +30°C° 0 mm 3 mps 749 mmHg 40%
    05:00 +29°C° 0 mm 3 mps 749 mmHg 40%
    06:00 +29°C° 0 mm 3 mps 749 mmHg 41%
    07:00 +30°C° 0 mm 4 mps 749 mmHg 36%
    08:00 +33°C° 0 mm 4 mps 749 mmHg 31%
    09:00 +34°C° 0 mm 5 mps 750 mmHg 26%
    10:00 +35°C° 0 mm 5 mps 750 mmHg 24%
    11:00 +35°C° 0 mm 5 mps 750 mmHg 22%
    12:00 +36°C° 0 mm 5 mps 750 mmHg 20%
    13:00 +36°C° 0 mm 5 mps 749 mmHg 20%
    14:00 +37°C° 0 mm 5 mps 749 mmHg 20%
    15:00 +37°C° 0 mm 5 mps 749 mmHg 20%
    16:00 +36°C° 0 mm 5 mps 749 mmHg 20%
    17:00 +35°C° 0 mm 4 mps 749 mmHg 21%
    18:00 +35°C° 0 mm 4 mps 749 mmHg 21%
    19:00 +34°C° 0 mm 3 mps 749 mmHg 22%
    20:00 +33°C° 0 mm 3 mps 749 mmHg 23%
    21:00 +33°C° 0 mm 3 mps 750 mmHg 24%
    22:00 +31°C° 0 mm 3 mps 750 mmHg 25%
    23:00 +30°C° 0 mm 3 mps 750 mmHg 26%

    26 July, Thursday

    Time Temperature Precipitation Wind Pressure Humidity
    00:00 +30°C° 0 mm 3 mps 750 mmHg 28%
    01:00 +29°C° 0 mm 3 mps 749 mmHg 29%
    02:00 +29°C° 0 mm 3 mps 749 mmHg 30%
    03:00 +28°C° 0 mm 3 mps 749 mmHg 31%
    04:00 +28°C° 0 mm 3 mps 749 mmHg 32%
    05:00 +28°C° 0 mm 3 mps 749 mmHg 32%
    06:00 +28°C° 0 mm 3 mps 749 mmHg 33%
    07:00 +30°C° 0 mm 3 mps 749 mmHg 29%
    08:00 +31°C° 0 mm 3 mps 750 mmHg 25%
    09:00 +34°C° 0 mm 3 mps 750 mmHg 21%
    10:00 +35°C° 0 mm 4 mps 750 mmHg 20%
    11:00 +36°C° 0 mm 4 mps 750 mmHg 19%
    12:00 +37°C° 0 mm 5 mps 750 mmHg 18%
    13:00 +37°C° 0 mm 5 mps 750 mmHg 19%
    14:00 +37°C° 0 mm 5 mps 749 mmHg 20%
    15:00 +37°C° 0 mm 4 mps 749 mmHg 20%
    16:00 +36°C° 0 mm 4 mps 749 mmHg 22%
    17:00 +35°C° 0 mm 3 mps 749 mmHg 24%
    18:00 +34°C° 0 mm 3 mps 749 mmHg 25%
    19:00 +34°C° 0 mm 2 mps 749 mmHg 27%
    20:00 +32°C° 0 mm 2 mps 749 mmHg 29%
    21:00 +31°C° 0 mm 1 mps 750 mmHg 31%
    22:00 +30°C° 0 mm 1 mps 750 mmHg 33%
    23:00 +30°C° 0 mm 1 mps 749 mmHg 35%

    27 July, Friday

    Time Temperature Precipitation Wind Pressure Humidity
    00:00 +29°C° 0 mm 1 mps 749 mmHg 37%
    01:00 +29°C° 0 mm 1 mps 749 mmHg 39%
    02:00 +28°C° 0 mm 1 mps 749 mmHg 41%
    03:00 +28°C° 0 mm 1 mps 749 mmHg 43%
    04:00 +28°C° 0 mm 1 mps 749 mmHg 42%
    05:00 +28°C° 0 mm 1 mps 749 mmHg 42%
    06:00 +26°C° 0 mm 0 mps 749 mmHg 42%
    07:00 +30°C° 0 mm 1 mps 749 mmHg 37%
    08:00 +31°C° 0 mm 1 mps 749 mmHg 32%
    09:00 +33°C° 0 mm 1 mps 749 mmHg 27%
    10:00 +35°C° 0 mm 2 mps 749 mmHg 24%
    11:00 +36°C° 0 mm 3 mps 749 mmHg 22%
    12:00 +38°C° 0 mm 3 mps 749 mmHg 20%
    13:00 +38°C° 0 mm 4 mps 749 mmHg 20%
    14:00 +38°C° 0 mm 4 mps 748 mmHg 21%
    15:00 +38°C° 0 mm 4 mps 748 mmHg 21%
    16:00 +37°C° 0 mm 4 mps 748 mmHg 22%
    17:00 +36°C° 0 mm 3 mps 748 mmHg 24%
    18:00 +35°C° 0 mm 3 mps 748 mmHg 25%
    19:00 +34°C° 0 mm 3 mps 749 mmHg 27%
    20:00 +32°C° 0 mm 2 mps 749 mmHg 30%
    21:00 +31°C° 0 mm 2 mps 749 mmHg 33%
    22:00 +31°C° 0 mm 2 mps 749 mmHg 35%
    23:00 +30°C° 0 mm 2 mps 749 mmHg 37%

    28 July, Saturday

    Time Temperature Precipitation Wind Pressure Humidity
    00:00 +29°C° 0 mm 2 mps 749 mmHg 40%
    01:00 +29°C° 0 mm 1 mps 749 mmHg 42%
    02:00 +28°C° 0 mm 1 mps 749 mmHg 45%
    03:00 +27°C° 0 mm 1 mps 749 mmHg 48%
    04:00 +27°C° 0 mm 1 mps 749 mmHg 49%
    05:00 +27°C° 0 mm 1 mps 749 mmHg 49%
    06:00 +25°C° 0 mm 0 mps 749 mmHg 50%
    07:00 +29°C° 0 mm 1 mps 749 mmHg 44%
    08:00 +30°C° 0 mm 1 mps 749 mmHg 38%
    09:00 +32°C° 0 mm 1 mps 750 mmHg 32%
    10:00 +34°C° 0 mm 2 mps 750 mmHg 29%
    11:00 +35°C° 0 mm 2 mps 749 mmHg 26%
    12:00 +37°C° 0 mm 3 mps 749 mmHg 23%
    13:00 +37°C° 0 mm 3 mps 749 mmHg 23%
    14:00 +37°C° 0 mm 3 mps 749 mmHg 24%
    15:00 +37°C° 0 mm 3 mps 749 mmHg 24%
    16:00 +36°C° 0 mm 3 mps 749 mmHg 26%
    17:00 +36°C° 0 mm 2 mps 749 mmHg 27%
    18:00 +35°C° 0 mm 2 mps 749 mmHg 29%
    19:00 +33°C° 0 mm 1 mps 749 mmHg 32%
    20:00 +32°C° 0 mm 1 mps 750 mmHg 35%
    21:00 +31°C° 0 mm 1 mps 750 mmHg 39%
    22:00 +30°C° 0 mm 1 mps 750 mmHg 41%
    23:00 +30°C° 0 mm 1 mps 750 mmHg 43%
    Show more